Regional Weather Roundup
Issued by NWS

Home | Current Version | Previous Version | Text Only | Print | Product List | Glossary Off
Versions: 1 2 3 4 5 6 7 8 9 10 11 12 13 14 15 16 17 18 19 20 21 22 23 24 25 26 27 28 29 30 31 32 33 34 35 36 37 38 39 40 41 42 43 44 45 46 47 48 49 50

000
ASUS43 KOAX 012010
RWRNE

WEATHER ROUNDUP FOR NEBRASKA
NATIONAL WEATHER SERVICE OMAHA NE
200 PM CST SUN MAR 01 2015

NOTES: SATELLITE DATA IS BEING USED TO AUGMENT CLOUD COVER ABOVE
       12000 FEET.
       "FAIR" INDICATES FEW OR NO CLOUDS BELOW 12,000 FEET WITH NO
       SIGNIFICANT WEATHER AND/OR OBSTRUCTIONS TO VISIBILITY.

  * THESE STATIONS DO NOT REPORT WEATHER SUCH AS RAIN...SNOW OR FOG.

NEZ001>004-019>022-054>056-012100-
NEBRASKA PANHANDLE

CITY           SKY/WX    TMP DP  RH WIND       PRES   REMARKS
SCOTTSBLUFF    PTSUNNY   33  12  41 N6        30.26  WCI  28
ALLIANCE       SUNNY     32   8  36 NW9       30.24  WCI  24
CHADRON        SUNNY     34  11  38 NW18      30.28  WCI  23
KIMBALL        CLOUDY    27  14  59 N5        30.21F WCI  21
SIDNEY         MOSUNNY   32  13  45 NW8G20    30.25F WCI  25
$$

NEZ057>060-069>072-079>082-012100-
SOUTHWEST NEBRASKA

CITY           SKY/WX    TMP DP  RH WIND       PRES   REMARKS
NORTH PLATTE   MOSUNNY   36  11  35 VRB5      30.30  WCI  32
IMPERIAL         N/A     35  11  36 N8        30.29  WCI  29
LEXINGTON      SUNNY     37  11  33 N6        30.31F WCI  33
MCCOOK         SUNNY     39  12  33 N8        30.31  WCI  33
OGALLALA       MOSUNNY   35  15  42 NW10      30.28F WCI  28
$$

NEZ005>010-023>029-035>040-094-012100-
NORTH CENTRAL NEBRASKA

CITY           SKY/WX    TMP DP  RH WIND       PRES   REMARKS
VALENTINE      CLOUDY    33  10  38 NW15      30.29F WCI  23
AINSWORTH      MOSUNNY   33   9  36 W16       30.29F WCI  23
BROKEN BOW     SUNNY     35  14  42 VRB3      30.30
O`NEILL        SUNNY     37   9  31 NW21G28   30.30F WCI  26
ORD            SUNNY     36  12  37 NW8       30.32  WCI  30
THEDFORD       SUNNY     37  14  39 W10G18    30.29S WCI  29
$$

NEZ041-046>049-061>064-073>077-083>087-012100-
SOUTH CENTRAL NEBRASKA

CITY           SKY/WX    TMP DP  RH WIND       PRES   REMARKS
GRAND ISLAND   SUNNY     37  11  34 NW7       30.34  WCI  32
AURORA         SUNNY     38  11  33 NW7       30.32F WCI  32
HASTINGS       SUNNY     37  11  34 CALM      30.32
HEBRON         SUNNY     36  17  44 NW8       30.35S WCI  30
HOLDREGE       SUNNY     36  10  34 NW9       30.31F WCI  29
KEARNEY *      SUNNY     36  12  38 N10       30.33S WCI  28
YORK           SUNNY     37  14  38 N9        30.34F WCI  31
$$

NEZ011>018-030>034-042>045-012100-
NORTHEAST NEBRASKA

CITY           SKY/WX    TMP DP  RH WIND       PRES   REMARKS
NORFOLK        MOSUNNY   37  14  38 W12G21    30.31  WCI  29
ALBION         SUNNY     37  11  34 NW10G20   30.32F WCI  30
BLAIR          SUNNY     36  15  42 W7        30.34F WCI  30
COLUMBUS *     SUNNY     37  12  35 NW10      30.35F WCI  30
FREMONT        SUNNY     38  13  35 CALM      30.34F
TEKAMAH        SUNNY     38  17  42 NW13      30.35  WCI  30
WAYNE          MOSUNNY   36  12  37 NW12G18   30.33F WCI  28
$$

NEZ050>053-065>068-078-088>093-012100-
SOUTHEAST NEBRASKA

CITY           SKY/WX    TMP DP  RH WIND       PRES   REMARKS
LINCOLN        SUNNY     38  15  39 VRB3      30.36
OMAHA EPPLEY   MOSUNNY   36  16  44 VRB3      30.36
BEATRICE       SUNNY     35  21  55 NW5       30.37S WCI  31
FALLS CITY     MOSUNNY   35  19  52 VRB3      30.37F
NEBRASKA CITY  SUNNY     35  16  45 W5        30.36S WCI  31
PLATTSMOUTH    SUNNY     35  14  42 N5        30.35F WCI  31
$$

NEZ044-045-051>053-067-012100-
OMAHA AREA

CITY           SKY/WX    TMP DP  RH WIND       PRES   REMARKS
OMAHA EPPLEY   MOSUNNY   36  16  44 VRB3      30.36
BLAIR          SUNNY     36  15  42 W7        30.34F WCI  30
FREMONT        SUNNY     38  13  35 CALM      30.34F
MILLARD        SUNNY     36  17  44 W6        30.35F WCI  32
OFFUTT AFB     SUNNY     35  15  43 VRB5      30.35  WCI  31
PLATTSMOUTH    SUNNY     35  14  42 N5        30.35F WCI  31
WAHOO          FAIR      38  10  31 NW6       30.35F WCI  33
$$


USA.gov is the U.S. government's official web portal to all federal, state and local government web resources and services.